Dades meteomassalio
Diari Summary for Marc 9, 2017 Units:  Metric    English   Both
« Previous Day
Next Day »
Diari Semanal Mensual Anual Personalitzat
  Maxima: Minima: Mijana:
Temperatura: 26.5 °C 4.8 °C 15.3 °C
Rosada: 9.7 °C 3.0 °C 6.5 °C
Humitat: 89 % 26 % 61 %
Velocitat del vent: 25.9 km/h 0.0 km/h 3.8 km/h
Racha vent: 25.9 km/h - -
Vent:- - WNW
Pressio: 1028.0 hPa 1022.2 hPa -
Pluja: 0.0 mm    
Historical Graphs
 
 
Tabular Data for Marc 9, 2017
Time Temperature Dew Point Pressure Wind Wind Speed Wind Gust Humidity Rainfall Rate (Hourly) solar Conditions
00:02 8.9 °C 6.5 °C 1027.3 hPa Calm     85 % 0.0 mm 0.0 W/m2 CLR
00:07 8.9 °C 6.4 °C 1027.0 hPa Calm     84 % 0.0 mm 0.0 W/m2 CLR
00:12 9.0 °C 6.6 °C 1027.3 hPa Calm     85 % 0.0 mm 0.0 W/m2 CLR
00:17 9.1 °C 6.5 °C 1027.3 hPa Calm     84 % 0.0 mm 0.0 W/m2 CLR
00:22 9.0 °C 6.4 °C 1027.3 hPa Calm     84 % 0.0 mm 0.0 W/m2 CLR
00:27 8.9 °C 6.3 °C 1027.3 hPa Calm     84 % 0.0 mm 0.0 W/m2 CLR
00:32 8.8 °C 6.3 °C 1027.3 hPa Calm     84 % 0.0 mm 0.0 W/m2 CLR
00:37 8.7 °C 6.2 °C 1027.3 hPa Calm     84 % 0.0 mm 0.0 W/m2 CLR
00:42 8.6 °C 6.1 °C 1027.3 hPa Calm     84 % 0.0 mm 0.0 W/m2 CLR
00:47 8.5 °C 5.9 °C 1027.3 hPa Calm     84 % 0.0 mm 0.0 W/m2 CLR
00:52 8.4 °C 5.9 °C 1027.3 hPa Calm     84 % 0.0 mm 0.0 W/m2 CLR
00:57 8.4 °C 5.8 °C 1027.3 hPa Calm     84 % 0.0 mm 0.0 W/m2 CLR
01:02 8.5 °C 5.8 °C 1027.3 hPa SW 5.6 km/h   83 % 0.0 mm 0.0 W/m2 CLR
01:07 8.5 °C 5.8 °C 1027.3 hPa Calm     83 % 0.0 mm 0.0 W/m2 CLR
01:12 8.4 °C 5.7 °C 1027.3 hPa Calm     83 % 0.0 mm 0.0 W/m2 CLR
01:17 8.3 °C 5.6 °C 1027.3 hPa Calm     83 % 0.0 mm 0.0 W/m2 CLR
01:22 8.2 °C 5.5 °C 1027.3 hPa Calm     83 % 0.0 mm 0.0 W/m2 CLR
01:27 8.2 °C 5.4 °C 1027.3 hPa Calm     83 % 0.0 mm 0.0 W/m2 CLR
01:32 8.0 °C 5.3 °C 1027.3 hPa Calm     83 % 0.0 mm 0.0 W/m2 CLR
01:37 7.8 °C 5.1 °C 1027.3 hPa Calm     83 % 0.0 mm 0.0 W/m2 CLR
01:42 7.6 °C 5.0 °C 1027.3 hPa Calm     84 % 0.0 mm 0.0 W/m2 CLR
01:47 7.4 °C 4.8 °C 1027.3 hPa Calm     84 % 0.0 mm 0.0 W/m2 CLR
01:52 7.3 °C 5.0 °C 1027.3 hPa Calm     85 % 0.0 mm 0.0 W/m2 CLR
01:57 7.4 °C 4.7 °C 1027.3 hPa SW 7.4 km/h 7.4 km/h 83 % 0.0 mm 0.0 W/m2 CLR
02:02 7.7 °C 4.8 °C 1027.3 hPa SW 6.4 km/h 6.4 km/h 82 % 0.0 mm 0.0 W/m2 CLR
02:08 7.8 °C 4.8 °C 1027.3 hPa Calm     81 % 0.0 mm 0.0 W/m2 CLR
02:13 7.8 °C 4.7 °C 1027.3 hPa Calm     81 % 0.0 mm 0.0 W/m2 CLR
02:18 7.7 °C 4.7 °C 1027.3 hPa Calm     81 % 0.0 mm 0.0 W/m2 CLR
02:23 7.7 °C 4.6 °C 1027.3 hPa Calm     81 % 0.0 mm 0.0 W/m2 CLR
02:28 7.6 °C 4.7 °C 1027.3 hPa Calm     82 % 0.0 mm 0.0 W/m2 CLR
02:33 7.3 °C 4.4 °C 1027.3 hPa Calm     82 % 0.0 mm 0.0 W/m2 CLR
02:38 7.2 °C 4.4 °C 1027.3 hPa Calm     83 % 0.0 mm 0.0 W/m2 CLR
02:43 7.0 °C 4.5 °C 1027.3 hPa Calm     84 % 0.0 mm 0.0 W/m2 CLR
02:48 6.9 °C 4.4 °C 1027.3 hPa Calm     84 % 0.0 mm 0.0 W/m2 CLR
02:53 6.8 °C 4.3 °C 1027.3 hPa Calm     84 % 0.0 mm 0.0 W/m2 CLR
02:58 6.7 °C 4.2 °C 1027.0 hPa Calm     84 % 0.0 mm 0.0 W/m2 CLR
03:03 6.7 °C 4.2 °C 1027.0 hPa Calm     84 % 0.0 mm 0.0 W/m2 CLR
03:08 6.7 °C 4.2 °C 1027.3 hPa Calm     84 % 0.0 mm 0.0 W/m2 CLR
03:13 6.6 °C 4.1 °C 1027.3 hPa Calm     84 % 0.0 mm 0.0 W/m2 CLR
03:18 6.4 °C 3.9 °C 1027.0 hPa Calm     84 % 0.0 mm 0.0 W/m2 CLR
03:23 6.4 °C 4.1 °C 1027.0 hPa SW 5.6 km/h   85 % 0.0 mm 0.0 W/m2 CLR
03:28 6.4 °C 4.1 °C 1027.0 hPa SW 5.6 km/h 5.6 km/h 85 % 0.0 mm 0.0 W/m2 CLR
03:33 6.4 °C 4.1 °C 1027.0 hPa Calm     85 % 0.0 mm 0.0 W/m2 CLR
03:38 6.3 °C 4.0 °C 1027.0 hPa Calm     85 % 0.0 mm 0.0 W/m2 CLR
03:43 6.3 °C 3.9 °C 1027.0 hPa SW 5.6 km/h 5.6 km/h 85 % 0.0 mm 0.0 W/m2 CLR
03:48 6.4 °C 4.1 °C 1027.0 hPa WSW 1.9 km/h 1.9 km/h 85 % 0.0 mm 0.0 W/m2 CLR
03:53 6.3 °C 3.8 °C 1027.0 hPa Calm     84 % 0.0 mm 0.0 W/m2 CLR
03:58 6.3 °C 3.9 °C 1027.0 hPa Calm     85 % 0.0 mm 0.0 W/m2 CLR
04:03 6.3 °C 3.9 °C 1027.0 hPa Calm     85 % 0.0 mm 0.0 W/m2 CLR
04:08 6.4 °C 4.1 °C 1027.0 hPa Calm     85 % 0.0 mm 0.0 W/m2 CLR
04:13 6.4 °C 3.9 °C 1027.0 hPa Calm     84 % 0.0 mm 0.0 W/m2 CLR
04:18 6.3 °C 3.8 °C 1027.0 hPa Calm     84 % 0.0 mm 0.0 W/m2 CLR
04:23 6.2 °C 3.9 °C 1027.0 hPa Calm     85 % 0.0 mm 0.0 W/m2 CLR
04:28 6.2 °C 3.9 °C 1027.0 hPa SW 5.6 km/h 5.6 km/h 85 % 0.0 mm 0.0 W/m2 CLR
04:33 6.3 °C 3.9 °C 1027.0 hPa Calm     85 % 0.0 mm 0.0 W/m2 CLR
04:38 6.3 °C 3.8 °C 1027.0 hPa Calm     84 % 0.0 mm 0.0 W/m2 CLR
04:43 6.1 °C 3.6 °C 1026.6 hPa Calm     84 % 0.0 mm 0.0 W/m2 CLR
04:48 6.0 °C 3.7 °C 1027.0 hPa Calm     85 % 0.0 mm 0.0 W/m2 CLR
04:53 5.8 °C 3.5 °C 1026.6 hPa Calm     85 % 0.0 mm 0.0 W/m2 CLR
04:58 5.7 °C 3.4 °C 1027.0 hPa Calm     85 % 0.0 mm 0.0 W/m2 CLR
05:00 5.7 °C 3.6 °C 1026.6 hPa Calm     86 % 0.0 mm 0.0 W/m2 CLR
05:05 5.7 °C 3.5 °C 1027.0 hPa SW 5.6 km/h   86 % 0.0 mm 0.0 W/m2 CLR
05:10 5.7 °C 3.6 °C 1027.0 hPa Calm     86 % 0.0 mm 0.0 W/m2 CLR
05:15 5.8 °C 3.6 °C 1027.0 hPa Calm     86 % 0.0 mm 0.0 W/m2 CLR
05:20 5.8 °C 3.6 °C 1027.0 hPa Calm     86 % 0.0 mm 0.0 W/m2 CLR
05:25 5.8 °C 3.6 °C 1027.0 hPa Calm     86 % 0.0 mm 0.0 W/m2 CLR
05:30 5.6 °C 3.4 °C 1027.0 hPa Calm     86 % 0.0 mm 0.0 W/m2 CLR
05:35 5.4 °C 3.3 °C 1027.0 hPa Calm     86 % 0.0 mm 0.0 W/m2 CLR
05:40 5.4 °C 3.2 °C 1027.0 hPa Calm     86 % 0.0 mm 0.0 W/m2 CLR
05:45 5.4 °C 3.4 °C 1027.0 hPa Calm     87 % 0.0 mm 0.0 W/m2 CLR
05:50 5.4 °C 3.4 °C 1027.0 hPa Calm     87 % 0.0 mm 0.0 W/m2 CLR
05:55 5.6 °C 3.6 °C 1027.0 hPa Calm     87 % 0.0 mm 0.0 W/m2 CLR
06:00 5.7 °C 3.5 °C 1027.0 hPa Calm     86 % 0.0 mm 0.0 W/m2 CLR
06:05 5.6 °C 3.4 °C 1027.0 hPa Calm     86 % 0.0 mm 0.0 W/m2 CLR
06:10 5.6 °C 3.4 °C 1027.0 hPa Calm     86 % 0.0 mm 0.0 W/m2 CLR
06:15 5.4 °C 3.3 °C 1027.0 hPa Calm     86 % 0.0 mm 0.0 W/m2 CLR
06:20 5.3 °C 3.2 °C 1027.0 hPa Calm     86 % 0.0 mm 0.0 W/m2 CLR
06:25 5.3 °C 3.3 °C 1027.0 hPa Calm     87 % 0.0 mm 0.0 W/m2 CLR
06:30 5.2 °C 3.2 °C 1027.0 hPa Calm     87 % 0.0 mm 0.0 W/m2 CLR
06:35 5.2 °C 3.2 °C 1027.0 hPa Calm     87 % 0.0 mm 0.0 W/m2 CLR
06:40 5.2 °C 3.3 °C 1027.0 hPa Calm     88 % 0.0 mm 0.0 W/m2 CLR
06:45 5.2 °C 3.4 °C 1027.0 hPa Calm     88 % 0.0 mm 0.0 W/m2 CLR
06:50 5.2 °C 3.4 °C 1027.0 hPa Calm     88 % 0.0 mm 0.0 W/m2 CLR
06:55 5.2 °C 3.3 °C 1027.0 hPa Calm     88 % 0.0 mm 0.0 W/m2 CLR
07:00 5.1 °C 3.3 °C 1027.0 hPa Calm     88 % 0.0 mm 0.0 W/m2 CLR
07:05 5.1 °C 3.1 °C 1027.0 hPa Calm     87 % 0.0 mm 0.0 W/m2 CLR
07:10 4.9 °C 3.1 °C 1027.3 hPa Calm     88 % 0.0 mm 0.0 W/m2 CLR
07:15 4.8 °C 3.0 °C 1027.3 hPa Calm     88 % 0.0 mm 0.0 W/m2 OVC
07:20 4.8 °C 3.0 °C 1027.3 hPa Calm     88 % 0.0 mm 0.0 W/m2 OVC
07:25 4.8 °C 3.0 °C 1027.3 hPa Calm     88 % 0.0 mm 5.0 W/m2 OVC
07:30 4.8 °C 3.0 °C 1027.3 hPa Calm     88 % 0.0 mm 7.0 W/m2 BKN
07:35 4.8 °C 3.2 °C 1027.3 hPa Calm     89 % 0.0 mm 11.0 W/m2 BKN
07:40 4.9 °C 3.2 °C 1027.3 hPa Calm     89 % 0.0 mm 12.0 W/m2 BKN
07:45 4.9 °C 3.1 °C 1027.3 hPa Calm     88 % 0.0 mm 16.0 W/m2 BKN
07:50 5.1 °C 3.4 °C 1027.3 hPa Calm     89 % 0.0 mm 23.0 W/m2 BKN
07:55 5.2 °C 3.4 °C 1027.7 hPa Calm     88 % 0.0 mm 33.0 W/m2 BKN
08:00 5.4 °C 3.6 °C 1027.7 hPa Calm     88 % 0.0 mm 54.0 W/m2 SCT
08:05 5.7 °C 3.8 °C 1027.7 hPa Calm     88 % 0.0 mm 65.0 W/m2 SCT
08:10 5.9 °C 3.9 °C 1027.7 hPa Calm     87 % 0.0 mm 76.0 W/m2 FEW
08:15 6.1 °C 4.1 °C 1027.7 hPa Calm     87 % 0.0 mm 67.0 W/m2 FEW
08:20 6.6 °C 4.7 °C 1027.7 hPa Calm     88 % 0.0 mm 97.0 W/m2 CLR
08:25 7.1 °C 5.1 °C 1027.7 hPa Calm     87 % 0.0 mm 111.0 W/m2 CLR
08:30 7.7 °C 5.3 °C 1027.7 hPa Calm     85 % 0.0 mm 134.0 W/m2 CLR
08:35 8.2 °C 5.5 °C 1027.7 hPa Calm     83 % 0.0 mm 104.0 W/m2 CLR
08:40 8.8 °C 5.9 °C 1028.0 hPa Calm     82 % 0.0 mm 178.0 W/m2 CLR
08:45 9.4 °C 6.1 °C 1028.0 hPa Calm     80 % 0.0 mm 193.0 W/m2 CLR
08:50 9.9 °C 6.3 °C 1028.0 hPa Calm     78 % 0.0 mm 214.0 W/m2 CLR
08:55 10.4 °C 6.3 °C 1028.0 hPa Calm     76 % 0.0 mm 232.0 W/m2 CLR
09:00 10.8 °C 6.3 °C 1027.7 hPa Calm     74 % 0.0 mm 253.0 W/m2 CLR
09:05 11.0 °C 6.3 °C 1027.7 hPa Calm     73 % 0.0 mm 269.0 W/m2 CLR
09:10 11.3 °C 6.4 °C 1027.7 hPa Calm     72 % 0.0 mm 285.0 W/m2 CLR
09:15 11.7 °C 6.8 °C 1027.7 hPa Calm     72 % 0.0 mm 299.0 W/m2 CLR
09:20 12.2 °C 6.8 °C 1027.7 hPa Calm     70 % 0.0 mm 313.0 W/m2 CLR
09:25 12.6 °C 6.8 °C 1027.7 hPa Calm     68 % 0.0 mm 330.0 W/m2 CLR
09:30 13.0 °C 7.0 °C 1027.7 hPa Calm     67 % 0.0 mm 348.0 W/m2 CLR
09:35 13.5 °C 7.1 °C 1027.7 hPa Calm     65 % 0.0 mm 364.0 W/m2 CLR
09:40 13.7 °C 7.1 °C 1027.7 hPa Calm     64 % 0.0 mm 380.0 W/m2 CLR
09:45 14.1 °C 6.9 °C 1027.3 hPa Calm     62 % 0.0 mm 392.0 W/m2 CLR
09:50 14.7 °C 7.5 °C 1027.3 hPa Calm     62 % 0.0 mm 408.0 W/m2 CLR
09:55 15.3 °C 7.6 °C 1027.3 hPa Calm     60 % 0.0 mm 424.0 W/m2 CLR
10:00 15.8 °C 7.5 °C 1027.3 hPa Calm     58 % 0.0 mm 431.0 W/m2 CLR
10:05 16.1 °C 7.6 °C 1027.3 hPa Calm     57 % 0.0 mm 445.0 W/m2 CLR
10:11 16.4 °C 7.6 °C 1027.3 hPa Calm     56 % 0.0 mm 466.0 W/m2 CLR
10:16 16.8 °C 8.2 °C 1027.3 hPa Calm     57 % 0.0 mm 478.0 W/m2 CLR
10:21 17.3 °C 8.4 °C 1027.3 hPa Calm     56 % 0.0 mm 490.0 W/m2 CLR
10:26 17.8 °C 8.3 °C 1027.3 hPa Calm     54 % 0.0 mm 504.0 W/m2 CLR
10:31 18.2 °C 8.2 °C 1027.0 hPa Calm     52 % 0.0 mm 508.0 W/m2 CLR
10:36 18.6 °C 8.6 °C 1027.0 hPa Calm     52 % 0.0 mm 533.0 W/m2 CLR
10:41 19.1 °C 8.7 °C 1027.0 hPa Calm     51 % 0.0 mm 543.0 W/m2 CLR
10:46 19.6 °C 7.7 °C 1027.0 hPa WNW 3.2 km/h 3.2 km/h 46 % 0.0 mm 555.0 W/m2 CLR
10:51 20.1 °C 7.7 °C 1027.0 hPa WNW 1.9 km/h 1.9 km/h 45 % 0.0 mm 554.0 W/m2 CLR
10:56 20.4 °C 8.4 °C 1027.0 hPa NW 6.4 km/h 6.4 km/h 46 % 0.0 mm 584.0 W/m2 CLR
11:06 20.3 °C 7.3 °C 1026.6 hPa NNW 13.0 km/h 13.0 km/h 43 % 0.0 mm 596.0 W/m2 CLR
11:11 20.3 °C 7.0 °C 1026.6 hPa NW 5.6 km/h 5.6 km/h 42 % 0.0 mm 612.0 W/m2 CLR
11:16 20.5 °C 7.2 °C 1026.6 hPa NW 5.6 km/h 5.6 km/h 42 % 0.0 mm 612.0 W/m2 CLR
11:21 20.8 °C 7.4 °C 1026.6 hPa NNW 11.1 km/h 11.1 km/h 42 % 0.0 mm 629.0 W/m2 CLR
11:26 21.0 °C 6.9 °C 1026.3 hPa WNW 5.6 km/h 5.6 km/h 40 % 0.0 mm 636.0 W/m2 CLR
11:31 21.2 °C 7.0 °C 1026.3 hPa Calm     40 % 0.0 mm 621.0 W/m2 CLR
11:36 21.5 °C 7.3 °C 1026.3 hPa NW 3.7 km/h 3.7 km/h 40 % 0.0 mm 647.0 W/m2 CLR
11:41 21.7 °C 6.4 °C 1026.3 hPa Calm     37 % 0.0 mm 671.0 W/m2 CLR
11:46 21.9 °C 7.3 °C 1026.3 hPa NW 11.3 km/h 11.3 km/h 39 % 0.0 mm 612.0 W/m2 CLR
11:51 22.1 °C 7.1 °C 1026.3 hPa NW 11.1 km/h 11.1 km/h 38 % 0.0 mm 575.0 W/m2 CLR
11:56 22.2 °C 7.2 °C 1026.3 hPa NNW 13.0 km/h 13.0 km/h 38 % 0.0 mm 698.0 W/m2 CLR
12:01 22.3 °C 7.3 °C 1026.0 hPa NW 14.8 km/h 14.8 km/h 38 % 0.0 mm 631.0 W/m2 CLR
12:06 22.2 °C 6.0 °C 1026.0 hPa West 18.5 km/h 18.5 km/h 35 % 0.0 mm 664.0 W/m2 CLR
12:11 22.2 °C 6.4 °C 1026.0 hPa NNW 14.8 km/h 14.8 km/h 36 % 0.0 mm 721.0 W/m2 CLR
12:16 22.4 °C 7.4 °C 1026.0 hPa NW 13.0 km/h 13.0 km/h 38 % 0.0 mm 707.0 W/m2 CLR
12:21 22.8 °C 7.3 °C 1026.0 hPa NNW 9.3 km/h 9.3 km/h 37 % 0.0 mm 717.0 W/m2 CLR
12:26 22.9 °C 7.1 °C 1025.6 hPa WNW 18.5 km/h 18.5 km/h 36 % 0.0 mm 724.0 W/m2 CLR
12:31 23.0 °C 7.5 °C 1025.6 hPa WNW 24.1 km/h 24.1 km/h 37 % 0.0 mm 715.0 W/m2 CLR
12:36 22.9 °C 7.4 °C 1026.0 hPa NW 24.1 km/h 24.1 km/h 37 % 0.0 mm 714.0 W/m2 CLR
12:41 22.9 °C 7.4 °C 1025.6 hPa NW 18.5 km/h 18.5 km/h 37 % 0.0 mm 728.0 W/m2 CLR
12:46 23.1 °C 8.0 °C 1025.6 hPa NW 9.3 km/h 9.3 km/h 38 % 0.0 mm 737.0 W/m2 CLR
12:51 23.2 °C 8.5 °C 1025.6 hPa NNW 18.5 km/h 18.5 km/h 39 % 0.0 mm 742.0 W/m2 CLR
12:56 23.2 °C 8.9 °C 1025.6 hPa NNW 14.8 km/h 14.8 km/h 40 % 0.0 mm 756.0 W/m2 CLR
13:01 23.3 °C 8.6 °C 1025.3 hPa NW 9.3 km/h 9.3 km/h 39 % 0.0 mm 691.0 W/m2 CLR
13:06 23.4 °C 8.3 °C 1025.3 hPa North 16.7 km/h 16.7 km/h 38 % 0.0 mm 719.0 W/m2 CLR
13:11 23.6 °C 8.8 °C 1025.3 hPa North 13.0 km/h 13.0 km/h 39 % 0.0 mm 684.0 W/m2 CLR
13:16 23.6 °C 8.4 °C 1025.3 hPa NNW 25.9 km/h 25.9 km/h 38 % 0.0 mm 737.0 W/m2 CLR
13:21 23.3 °C 8.2 °C 1025.3 hPa NW 25.7 km/h 25.7 km/h 38 % 0.0 mm 624.0 W/m2 CLR
13:26 23.2 °C 8.1 °C 1025.3 hPa NNW 20.4 km/h 20.4 km/h 38 % 0.0 mm 686.0 W/m2 CLR
13:31 23.4 °C 8.7 °C 1024.9 hPa NW 19.3 km/h 19.3 km/h 39 % 0.0 mm 638.0 W/m2 CLR
13:36 23.4 °C 7.9 °C 1024.9 hPa NW 24.1 km/h 24.1 km/h 37 % 0.0 mm 744.0 W/m2 CLR
13:41 23.6 °C 8.0 °C 1024.9 hPa NW 20.4 km/h 20.4 km/h 37 % 0.0 mm 712.0 W/m2 CLR
13:46 23.6 °C 8.1 °C 1024.9 hPa NNW 20.4 km/h 20.4 km/h 37 % 0.0 mm 719.0 W/m2 CLR
13:51 23.7 °C 7.7 °C 1024.6 hPa NNW 22.2 km/h 22.2 km/h 36 % 0.0 mm 742.0 W/m2 CLR
13:56 23.9 °C 8.3 °C 1024.6 hPa NNW 18.5 km/h 18.5 km/h 37 % 0.0 mm 721.0 W/m2 CLR
14:01 24.2 °C 7.3 °C 1024.6 hPa NW 11.1 km/h 11.1 km/h 34 % 0.0 mm 747.0 W/m2 CLR
14:06 24.6 °C 8.6 °C 1024.6 hPa NNW 13.0 km/h 13.0 km/h 36 % 0.0 mm 698.0 W/m2 CLR
14:11 24.8 °C 7.8 °C 1024.3 hPa NNW 16.7 km/h 16.7 km/h 34 % 0.0 mm 663.0 W/m2 CLR
14:16 24.8 °C 6.9 °C 1024.3 hPa WNW 22.2 km/h 22.2 km/h 32 % 0.0 mm 589.0 W/m2 CLR
14:21 24.5 °C 6.7 °C 1024.3 hPa WNW 18.5 km/h 18.5 km/h 32 % 0.0 mm 638.0 W/m2 CLR
14:26 24.6 °C 7.7 °C 1024.3 hPa NNW 18.5 km/h 18.5 km/h 34 % 0.0 mm 673.0 W/m2 CLR
14:31 24.7 °C 8.2 °C 1023.9 hPa West 9.3 km/h 9.3 km/h 35 % 0.0 mm 670.0 W/m2 CLR
14:36 24.8 °C 6.6 °C 1023.9 hPa NNW 9.3 km/h 9.3 km/h 31 % 0.0 mm 703.0 W/m2 CLR
14:41 25.1 °C 7.7 °C 1023.9 hPa NNW 11.1 km/h 11.1 km/h 33 % 0.0 mm 656.0 W/m2 CLR
14:46 25.2 °C 6.8 °C 1023.9 hPa NNW 9.3 km/h 9.3 km/h 31 % 0.0 mm 671.0 W/m2 CLR
14:51 25.2 °C 6.3 °C 1023.6 hPa NNW 9.3 km/h 9.3 km/h 30 % 0.0 mm 666.0 W/m2 CLR
14:56 25.3 °C 7.4 °C 1023.6 hPa WNW 8.0 km/h 8.0 km/h 32 % 0.0 mm 647.0 W/m2 CLR
15:01 25.6 °C 6.2 °C 1023.6 hPa NW 9.3 km/h 9.3 km/h 29 % 0.0 mm 605.0 W/m2 CLR
15:06 25.8 °C 6.4 °C 1023.6 hPa NW 1.9 km/h   29 % 0.0 mm 548.0 W/m2 CLR
15:11 25.9 °C 5.5 °C 1023.6 hPa NW 14.5 km/h 14.5 km/h 27 % 0.0 mm 566.0 W/m2 CLR
15:16 25.9 °C 6.5 °C 1023.2 hPa NNW 20.9 km/h 20.9 km/h 29 % 0.0 mm 629.0 W/m2 CLR
15:21 25.9 °C 6.0 °C 1023.2 hPa NW 18.5 km/h 18.5 km/h 28 % 0.0 mm 570.0 W/m2 CLR
15:26 26.0 °C 6.6 °C 1023.2 hPa NW 13.0 km/h 13.0 km/h 29 % 0.0 mm 559.0 W/m2 CLR
15:31 26.1 °C 5.7 °C 1023.2 hPa NNW 22.2 km/h 22.2 km/h 27 % 0.0 mm 571.0 W/m2 CLR
15:36 26.1 °C 5.1 °C 1023.2 hPa NNW 24.1 km/h 24.1 km/h 26 % 0.0 mm 578.0 W/m2 CLR
15:41 25.9 °C 5.5 °C 1023.2 hPa NNW 22.2 km/h 22.2 km/h 27 % 0.0 mm 589.0 W/m2 CLR
15:46 26.1 °C 6.1 °C 1023.2 hPa NW 18.5 km/h 18.5 km/h 28 % 0.0 mm 519.0 W/m2 CLR
15:51 26.1 °C 5.7 °C 1023.2 hPa NW 18.5 km/h 18.5 km/h 27 % 0.0 mm 543.0 W/m2 CLR
15:56 26.1 °C 6.2 °C 1023.2 hPa NNE 14.8 km/h 14.8 km/h 28 % 0.0 mm 497.0 W/m2 CLR
16:01 26.1 °C 7.2 °C 1023.2 hPa North 18.5 km/h 18.5 km/h 30 % 0.0 mm 547.0 W/m2 CLR
16:06 26.1 °C 6.6 °C 1022.9 hPa NNW 13.0 km/h 13.0 km/h 29 % 0.0 mm 489.0 W/m2 CLR
16:11 26.1 °C 6.2 °C 1022.9 hPa NNW 14.8 km/h 14.8 km/h 28 % 0.0 mm 392.0 W/m2 CLR
16:16 26.1 °C 6.6 °C 1022.9 hPa NW 11.1 km/h 11.1 km/h 29 % 0.0 mm 403.0 W/m2 CLR
16:21 25.9 °C 6.5 °C 1022.9 hPa NW 7.4 km/h 7.4 km/h 29 % 0.0 mm 325.0 W/m2 CLR
16:26 25.9 °C 7.0 °C 1022.9 hPa NW 3.7 km/h 3.7 km/h 30 % 0.0 mm 445.0 W/m2 CLR
16:31 26.1 °C 7.2 °C 1022.9 hPa North 3.7 km/h 3.7 km/h 30 % 0.0 mm 436.0 W/m2 CLR
16:36 26.1 °C 7.2 °C 1022.6 hPa NNW 9.7 km/h 9.7 km/h 30 % 0.0 mm 362.0 W/m2 CLR
16:41 25.9 °C 6.6 °C 1022.6 hPa North 9.3 km/h 9.3 km/h 29 % 0.0 mm 387.0 W/m2 CLR
16:46 25.9 °C 7.1 °C 1022.6 hPa WNW 8.0 km/h 8.0 km/h 30 % 0.0 mm 343.0 W/m2 CLR
16:51 26.0 °C 7.1 °C 1022.6 hPa WNW 7.4 km/h 7.4 km/h 30 % 0.0 mm 350.0 W/m2 CLR
16:56 26.1 °C 7.7 °C 1022.6 hPa North 5.6 km/h 5.6 km/h 31 % 0.0 mm 364.0 W/m2 CLR
17:01 26.2 °C 7.7 °C 1022.6 hPa Calm     31 % 0.0 mm 334.0 W/m2 CLR
17:07 26.3 °C 8.3 °C 1022.6 hPa Calm   0.3 km/h 32 % 0.0 mm 279.0 W/m2 CLR
17:12 26.3 °C 7.8 °C 1022.6 hPa Calm     31 % 0.0 mm 304.0 W/m2 CLR
17:17 26.3 °C 8.3 °C 1022.6 hPa Calm     32 % 0.0 mm 255.0 W/m2 CLR
17:22 26.4 °C 8.4 °C 1022.2 hPa Calm     32 % 0.0 mm 294.0 W/m2 CLR
17:27 26.5 °C 8.9 °C 1022.2 hPa Calm     33 % 0.0 mm 223.0 W/m2 CLR
17:32 26.5 °C 8.9 °C 1022.2 hPa North 3.7 km/h 3.7 km/h 33 % 0.0 mm 230.0 W/m2 CLR
17:37 26.2 °C 8.2 °C 1022.2 hPa NW 5.6 km/h 5.6 km/h 32 % 0.0 mm 258.0 W/m2 CLR
17:42 26.1 °C 8.1 °C 1022.2 hPa Calm     32 % 0.0 mm 234.0 W/m2 CLR
17:47 26.2 °C 8.6 °C 1022.2 hPa NNW 8.0 km/h 8.0 km/h 33 % 0.0 mm 199.0 W/m2 CLR
17:52 26.1 °C 8.5 °C 1022.2 hPa WNW 5.6 km/h   33 % 0.0 mm 171.0 W/m2 CLR
17:57 26.0 °C 8.5 °C 1022.6 hPa WNW 5.6 km/h 5.6 km/h 33 % 0.0 mm 160.0 W/m2 CLR
18:02 25.8 °C 8.8 °C 1022.2 hPa WNW 1.6 km/h 1.6 km/h 34 % 0.0 mm 90.0 W/m2 CLR
18:07 25.6 °C 8.6 °C 1022.2 hPa NW 3.7 km/h   34 % 0.0 mm 118.0 W/m2 CLR
18:12 25.6 °C 8.6 °C 1022.2 hPa Calm     34 % 0.0 mm 90.0 W/m2 CLR
18:17 25.4 °C 8.4 °C 1022.2 hPa Calm     34 % 0.0 mm 70.0 W/m2 FEW
18:19 25.4 °C 9.7 °C 1022.2 hPa Calm     37 % 0.0 mm 77.0 W/m2 FEW
18:24 25.2 °C 9.1 °C 1022.6 hPa WNW 5.6 km/h 5.6 km/h 36 % 0.0 mm 63.0 W/m2 SCT
18:29 24.9 °C 9.2 °C 1022.6 hPa Calm     37 % 0.0 mm 49.0 W/m2 SCT
18:34 24.5 °C 8.8 °C 1022.6 hPa Calm     37 % 0.0 mm 35.0 W/m2 BKN
18:39 24.1 °C 8.9 °C 1022.6 hPa Calm     38 % 0.0 mm 23.0 W/m2 BKN
18:44 23.4 °C 8.3 °C 1022.6 hPa Calm     38 % 0.0 mm 21.0 W/m2 BKN
18:49 22.9 °C 7.9 °C 1022.6 hPa Calm     38 % 0.0 mm 16.0 W/m2 BKN
18:54 22.8 °C 8.2 °C 1022.6 hPa Calm     39 % 0.0 mm 12.0 W/m2 BKN
18:55 22.8 °C 8.2 °C 1022.6 hPa Calm     39 % 0.0 mm 12.0 W/m2 BKN
19:00 22.4 °C 8.5 °C 1022.6 hPa Calm     41 % 0.0 mm 9.0 W/m2 BKN
19:05 21.6 °C 8.8 °C 1022.6 hPa Calm     44 % 0.0 mm 7.0 W/m2 CLR
19:10 21.4 °C 8.6 °C 1022.6 hPa Calm     44 % 0.0 mm 0.0 W/m2 CLR
19:15 20.9 °C 8.5 °C 1022.6 hPa Calm     45 % 0.0 mm 0.0 W/m2 CLR
19:20 20.7 °C 8.6 °C 1022.6 hPa Calm     46 % 0.0 mm 0.0 W/m2 CLR
19:25 20.3 °C 8.9 °C 1022.6 hPa Calm     48 % 0.0 mm 0.0 W/m2 CLR
19:30 19.9 °C 9.2 °C 1022.9 hPa Calm     50 % 0.0 mm 0.0 W/m2 CLR
19:32 19.8 °C 9.1 °C 1022.9 hPa Calm     50 % 0.0 mm 0.0 W/m2 CLR
19:37 19.6 °C 9.2 °C 1022.9 hPa Calm     51 % 0.0 mm 0.0 W/m2 CLR
19:39 19.4 °C 9.1 °C 1022.9 hPa Calm     51 % 0.0 mm 0.0 W/m2 CLR
19:40 19.4 °C 9.0 °C 1022.6 hPa Calm     51 % 0.0 mm 0.0 W/m2 CLR
19:42 19.1 °C 9.3 °C 1022.9 hPa Calm     53 % 0.0 mm 0.0 W/m2 CLR
19:44 18.9 °C 9.2 °C 1022.9 hPa Calm     53 % 0.0 mm 0.0 W/m2 CLR
19:49 18.5 °C 9.3 °C 1022.9 hPa Calm     55 % 0.0 mm 0.0 W/m2 CLR
19:50 18.4 °C 9.2 °C 1022.9 hPa Calm     55 % 0.0 mm 0.0 W/m2 CLR
19:55 17.9 °C 9.0 °C 1022.9 hPa Calm     56 % 0.0 mm 0.0 W/m2 CLR
20:00 17.6 °C 8.7 °C 1022.9 hPa Calm     56 % 0.0 mm 0.0 W/m2 CLR
20:05 17.3 °C 8.7 °C 1022.9 hPa Calm     57 % 0.0 mm 0.0 W/m2 CLR
20:10 17.0 °C 8.9 °C 1022.9 hPa Calm     59 % 0.0 mm 0.0 W/m2 CLR
20:15 16.7 °C 8.9 °C 1023.2 hPa Calm     60 % 0.0 mm 0.0 W/m2 CLR
20:20 16.3 °C 8.8 °C 1023.2 hPa Calm     61 % 0.0 mm 0.0 W/m2 CLR
20:25 16.2 °C 8.9 °C 1023.2 hPa Calm     62 % 0.0 mm 0.0 W/m2 CLR
20:30 16.0 °C 8.7 °C 1023.2 hPa Calm     62 % 0.0 mm 0.0 W/m2 CLR
20:35 16.1 °C 8.8 °C 1023.2 hPa Calm     62 % 0.0 mm 0.0 W/m2 CLR
20:40 16.1 °C 8.6 °C 1023.2 hPa Calm     61 % 0.0 mm 0.0 W/m2 CLR
20:45 16.1 °C 8.3 °C 1023.2 hPa WSW 1.9 km/h 1.9 km/h 60 % 0.0 mm 0.0 W/m2 CLR
20:50 16.2 °C 8.4 °C 1023.2 hPa Calm     60 % 0.0 mm 0.0 W/m2 CLR
20:55 16.0 °C 8.5 °C 1023.2 hPa Calm     61 % 0.0 mm 0.0 W/m2 CLR
21:00 15.6 °C 8.3 °C 1023.2 hPa Calm     62 % 0.0 mm 0.0 W/m2 CLR
21:05 15.4 °C 8.4 °C 1023.2 hPa Calm     63 % 0.0 mm 0.0 W/m2 CLR
21:10 15.2 °C 8.4 °C 1023.2 hPa Calm     64 % 0.0 mm 0.0 W/m2 CLR
21:15 14.9 °C 8.4 °C 1023.2 hPa Calm     65 % 0.0 mm 0.0 W/m2 CLR
21:20 14.9 °C 8.4 °C 1023.2 hPa Calm     65 % 0.0 mm 0.0 W/m2 CLR
21:25 14.9 °C 8.4 °C 1023.2 hPa Calm     65 % 0.0 mm 0.0 W/m2 CLR
21:30 15.0 °C 8.4 °C 1023.2 hPa Calm     65 % 0.0 mm 0.0 W/m2 CLR
21:35 15.0 °C 8.4 °C 1023.2 hPa Calm     65 % 0.0 mm 0.0 W/m2 CLR
21:40 15.2 °C 8.4 °C 1023.2 hPa Calm     64 % 0.0 mm 0.0 W/m2 CLR
21:45 15.1 °C 8.3 °C 1023.2 hPa Calm     64 % 0.0 mm 0.0 W/m2 CLR
21:50 15.1 °C 8.3 °C 1023.2 hPa SW 5.6 km/h 5.6 km/h 64 % 0.0 mm 0.0 W/m2 CLR
21:55 15.2 °C 8.4 °C 1023.2 hPa SSW 3.7 km/h 3.7 km/h 64 % 0.0 mm 0.0 W/m2 CLR
22:00 15.1 °C 8.3 °C 1023.2 hPa Calm     64 % 0.0 mm 0.0 W/m2 CLR
22:05 14.9 °C 8.4 °C 1023.2 hPa Calm     65 % 0.0 mm 0.0 W/m2 CLR
22:10 14.8 °C 8.1 °C 1023.2 hPa Calm     64 % 0.0 mm 0.0 W/m2 CLR
22:15 14.9 °C 8.1 °C 1023.2 hPa Calm     64 % 0.0 mm 0.0 W/m2 CLR
22:20 14.6 °C 8.1 °C 1023.2 hPa Calm     65 % 0.0 mm 0.0 W/m2 CLR
22:25 14.4 °C 8.1 °C 1023.2 hPa Calm     66 % 0.0 mm 0.0 W/m2 CLR
22:30 14.4 °C 7.9 °C 1023.6 hPa Calm     65 % 0.0 mm 0.0 W/m2 CLR
22:36 14.4 °C 8.1 °C 1023.6 hPa Calm     66 % 0.0 mm 0.0 W/m2 CLR
22:41 14.3 °C 8.0 °C 1023.2 hPa Calm     66 % 0.0 mm 0.0 W/m2 CLR
22:46 14.0 °C 7.9 °C 1023.2 hPa Calm     67 % 0.0 mm 0.0 W/m2 CLR
22:51 13.9 °C 7.8 °C 1023.2 hPa Calm     67 % 0.0 mm 0.0 W/m2 CLR
22:56 13.9 °C 7.9 °C 1023.2 hPa Calm     67 % 0.0 mm 0.0 W/m2 CLR
23:01 13.8 °C 7.8 °C 1023.2 hPa Calm     67 % 0.0 mm 0.0 W/m2 CLR
23:06 13.9 °C 7.8 °C 1023.2 hPa Calm     67 % 0.0 mm 0.0 W/m2 CLR
23:11 13.9 °C 7.8 °C 1023.2 hPa Calm     67 % 0.0 mm 0.0 W/m2 CLR
23:16 13.8 °C 7.8 °C 1023.2 hPa Calm     67 % 0.0 mm 0.0 W/m2 CLR
23:21 13.6 °C 7.8 °C 1023.2 hPa Calm     68 % 0.0 mm 0.0 W/m2 CLR
23:26 13.2 °C 7.7 °C 1023.2 hPa Calm     69 % 0.0 mm 0.0 W/m2 CLR
23:31 12.9 °C 7.6 °C 1023.2 hPa Calm     70 % 0.0 mm 0.0 W/m2 CLR
23:36 12.6 °C 7.3 °C 1023.2 hPa Calm     70 % 0.0 mm 0.0 W/m2 CLR
23:41 12.7 °C 7.2 °C 1023.2 hPa West 5.6 km/h   69 % 0.0 mm 0.0 W/m2 CLR
23:46 12.8 °C 7.3 °C 1023.6 hPa Calm     69 % 0.0 mm 0.0 W/m2 CLR
23:51 12.8 °C 7.2 °C 1023.6 hPa Calm     69 % 0.0 mm 0.0 W/m2 CLR
23:56 12.8 °C 7.1 °C 1023.6 hPa Calm     68 % 0.0 mm 0.0 W/m2 CLR
Lo Temps de Massalio
Compliments of Weather Underground - 1.25 mb